Location: Home
(42.5358°N, 72.7383°W)
Time: 00:03:46
(UTC-04:00)

DELTA 1 DEB - Pass Details

Date: 02 July 2022
Orbit: 600 x 774 km, 98.5° (Epoch: 16 August)

Event Time Altitude Azimuth Distance (km) Brightness Sun altitude
Exits shadow 22:33:17 29° 149° (SSE) 1,381 ? -16.8°
Maximum altitude 22:35:54 69° 74° (ENE) 808 ? -17.0°
Drops below altitude 10° 22:40:49 10° 352° (N) 2,244 ? -17.5°
Sets 22:43:04 0° 350° (N) 3,145 ? -17.8°
